Regional Weather Roundup
Issued by NWS Sterling, VA

Home | Current Version | Previous Version | Graphics & Text | Print | Product List | Glossary On
Versions: 1 2 3 4 5 6 7 8 9 10 11 12 13 14 15 16 17 18 19 20 21 22 23 24 25 26 27 28 29 30 31 32 33 34 35 36 37 38 39 40 41 42 43 44 45 46 47 48 49 50
000
ASUS41 KLWX 291610
RWRLWX

REGIONAL WEATHER ROUNDUP
NATIONAL WEATHER SERVICE BALTIMORE MD/WASHINGTON DC
1200 PM EDT FRI MAY 29 2015

Note: "FAIR" indicates few or no clouds below 12,000 feet
with no significant weather and/or obstructions to visibility.
 TC=TEMPERATURE CELSIUS

 * =Non NWS site. Station does not report precipitation (e.g. rain,
    snow, etc.), thunder, or fog.

DCZ001-MDZ009-015-VAZ040>042-051-053>054-291700-
WASHINGTON METRO

CITY           SKY/WX    TMP DP  RH WIND       PRES   REMARKS
WASHINGTON NAT CLOUDY    77  67  71 CALM      30.27F
DULLES         PTSUNNY   77  66  69 VRB3      30.26F
ANDREWS AFB    CLOUDY    73  68  83 VRB6      30.27S
FT BELVOIR     CLOUDY    76  69  78 SE3       30.27S
QUANTICO       PTSUNNY   77  69  76 E5        30.27S
COLLEGE PARK*  CLOUDY    73  64  73 E3        30.27F
LEESBURG*      MOSUNNY   81  68  65 E6        30.28S
MANASSAS*      CLOUDY    75  70  83 SE6       30.27S
GAITHERSBURG*  SUNNY     77  64  65 CALM      30.32S

$$

MDZ006>007-011-014-291700-
BALTIMORE METRO

CITY           SKY/WX    TMP DP  RH WIND       PRES   REMARKS
BWI AIRPORT    PTSUNNY   75  61  61 E5        30.27F
MD SCIENCE CTR   N/A     77  60  55 MISG      30.28F
MARTIN STATE   MOSUNNY   77  63  61 E6        30.29F
ANNAPOLIS      CLOUDY    73  62  68 NE3       30.27F
FORT MEADE*    CLOUDY    73  63  68 E5        30.30F

$$

MDZ012-015-019>023-291700-
MARYLAND EASTERN SHORE

CITY           SKY/WX    TMP DP  RH WIND       PRES   REMARKS
OCEAN CITY     SUNNY     73  65  75 S7        30.27S
SALISBURY      MOSUNNY   82  68  62 SE7       30.25F
BAY BRIDGE AP*   N/A    N/A N/A N/A E6        30.27F
CAMBRIDGE*     MOSUNNY   79  68  69 CALM      30.25F
EASTON*        MOSUNNY   79  68  69 SE6       30.30F

$$

MDZ017>025-291700-
SOUTHERN MARYLAND

CITY           SKY/WX    TMP DP  RH WIND       PRES   REMARKS
PATUXENT RIVER MOSUNNY   79  67  66 SE8       30.26S
ST INIGOES     SUNNY     80  68  66 VRB5      30.25S
LEONARDTOWN*   SUNNY     79  68  69 NE6       30.27S

$$

MDZ003>005-291700-
NORTH CENTRAL MARYLAND

CITY           SKY/WX    TMP DP  RH WIND       PRES   REMARKS
FREDERICK*     SUNNY     81  64  57 VRB5      30.29F
HAGERSTOWN APT SUNNY     79  59  50 VRB5      30.27F
WESTMINSTER*   SUNNY     81  61  50 SE3       30.29S

$$

MDZ501>502-291700-
WESTERN MARYLAND

CITY           SKY/WX    TMP DP  RH WIND       PRES   REMARKS
OAKLAND*       MOSUNNY   70  68  94 SE8       30.33S
CUMBERLAND*    MOSUNNY   77  59  53 SE3       30.32S

$$

VAZ025>031-291700-
SHENANDOAH VALLEY

CITY           SKY/WX    TMP DP  RH WIND       PRES   REMARKS
WINCHESTER*    PTSUNNY   79  57  47 CALM      30.28S
FRONT ROYAL*   FAIR      75  68  78 E3        30.27F
LURAY*         PTSUNNY   81  70  69 N8        30.26F
NEW MARKET*    FAIR      79  66  65 CALM      30.25F
STAUNTON*      PTSUNNY   80  67  64 CALM      30.30S
WAYNESBORO*    PTSUNNY   77  67  70 SE12      30.29S

$$

WVZ021-048>050-054>055-291700-
EASTERN WEST VIRGINIA PANHANDLE

CITY           SKY/WX    TMP DP  RH WIND       PRES   REMARKS
MARTINSBURG    SUNNY     77  61  57 E5        30.28S
PETERSBURG*    MOSUNNY   77  62  59 CALM      30.29F

$$

VAZ036>039-050-291700-
CENTRAL FOOTHILLS

CITY           SKY/WX    TMP DP  RH WIND       PRES   REMARKS
CHARLOTTESVILL PTSUNNY   79  68  69 NE5       30.27S
CULPEPER*      CLOUDY    75  70  84 CALM      30.27F
ORANGE*        CLOUDY    79  72  78 CALM      30.28S
GORDONSVILLE*  PTSUNNY   78  71  78 NE5       30.26S
WARRENTON*     CLOUDY    78  72  84 NE3       30.26F

$$

VAZ055>057-291700-
NORTH AND CENTRAL PIEDMONT

CITY           SKY/WX    TMP DP  RH WIND       PRES   REMARKS
FREDERICKSBRG* MOSUNNY   82  74  77 N5        30.24F
STAFFORD*      CLOUDY    78  69  73 E5        30.30S HAZE

$$

NCZ024-NYZ072-PAZ021-071-VAZ022-071-291700-
OTHER REGIONAL OBSERVATIONS

CITY           SKY/WX    TMP DP  RH WIND       PRES   REMARKS
NEW YORK CITY  SUNNY     79  53  40 VRB3      30.31F
PHILADELPHIA   MOSUNNY   81  58  45 E6        30.28F
PITTSBURGH     PTSUNNY   80  61  52 S5        30.21S
ROANOKE        MOSUNNY   80  65  59 VRB7      30.29S
RICHMOND       PTSUNNY   85  69  58 SE7       30.24F
RALEIGH        MOSUNNY   82  67  60 CALM      30.26S

$$

ANZ530>537-291700-
MARINE OBSERVATIONS

STATION/POSITION TIME  TEMP    WIND        PRES
                       AIR SEA DIR/SP/G
                 (UTC) (F)     (DEG/KT/KT) (MB)
THOMAS PT LIGHT  1600   70 70   10/  7/  8 1025.6F
BALT KEY BRIDGE  1500   71      90/  9/ 11 1025.4R
COVE POINT       1500   71     160/  2/  3 1025.5R
LEWISETTA        1500   74 73              1024.4R
SOLOMONS ISLAND  1500      74                N/A
PINEY POINT      1500          180/  5/  5   N/A

$$




USA.gov is the U.S. government's official web portal to all federal, state and local government web resources and services.